EW2817 Weather Reports


time (UTC)temp
C
wind
direction
speed
KPH
gust
KPH
rain 1hr
cm
rain 24hr
cm
rain mn
cm
humidity
%
barometer
mb
20260902060556 26 0 0.0 0.0 0.00 0.00 0.00 87 994.5
20260902055055 26 0 0.0 0.0 0.00 0.00 0.00 87 994.4
20260902054310 26 0 0.0 0.0 0.00 0.00 0.00 87 994.3
20260902052053 26 0 0.0 0.0 0.00 0.00 0.00 88 994.1
20260902050553 26 0 0.0 0.0 0.00 0.00 0.00 88 993.9
20260902045749 26 0 0.0 0.0 0.00 0.00 0.00 88 993.9
20260902043552 26 0 0.0 0.0 0.00 0.00 0.00 88 993.8
20260902042051 26 0 0.0 0.0 0.00 0.00 0.00 88 993.8
20260902041259 26 0 0.0 0.0 0.00 0.00 0.00 87 993.8
20260902035741 26 0 0.0 0.0 0.00 0.00 0.00 86 993.8
20260902034255 26 0 0.0 0.0 0.00 0.00 0.00 86 993.8
20260902032043 27 0 0.0 0.0 0.00 0.00 0.00 85 993.9
20260902030542 27 0 0.0 0.0 0.00 0.00 0.00 85 993.9
20260902025043 27 0 0.0 0.0 0.00 0.00 0.00 84 993.8
20260902023541 27 0 0.0 0.0 0.00 0.00 0.00 83 993.7
20260902022040 27 0 0.0 0.0 0.00 0.00 0.00 82 993.8
20260902020541 27 0 0.0 0.0 0.00 0.00 0.00 81 993.6
20260902015040 27 0 0.0 0.0 0.00 0.00 0.00 80 993.4
20260902013538 28 0 0.0 0.0 0.00 0.00 0.00 80 993.2
20260902012038 28 0 0.0 0.0 0.00 0.00 0.00 80 993.1
20260902010539 28 0 0.0 0.0 0.00 0.00 0.00 81 993.0
20260902005732 28 0 0.0 0.0 0.00 0.00 0.00 80 992.8
20260902003536 28 0 0.0 0.0 0.00 0.00 0.00 79 992.9
20260902002736 28 0 0.0 0.0 0.00 0.00 0.00 79 992.7
20260902000534 29 0 0.0 0.0 0.00 0.00 0.00 79 992.8
20260901235034 29 0 0.0 0.0 0.00 0.00 0.00 79 993.0
20260901233532 30 0 0.0 0.0 0.00 0.00 0.00 79 993.0
20260901232033 30 0 0.0 0.0 0.00 0.00 0.00 77 993.0
20260901230536 31 0 0.0 0.0 0.00 0.00 0.00 75 993.1
20260901225028 31 0 0.0 0.0 0.00 0.00 0.00 74 993.1
20260901224227 32 0 0.0 0.0 0.00 0.00 0.00 73 993.1
20260901222026 32 0 0.0 0.0 0.00 0.00 0.00 72 993.1
20260901220526 32 0 0.0 0.0 0.00 0.00 0.00 71 993.1
20260901213524 32 0 0.0 0.0 0.00 0.00 0.00 68 993.1
20260901212022 33 0 0.0 0.0 0.00 0.00 0.00 66 993.2
20260901211921 33 0 0.0 0.0 0.00 0.00 0.00 63 993.2
20260901205719 33 0 0.0 0.0 0.00 0.00 0.00 61 993.3
20260901203521 33 0 0.0 0.0 0.00 0.00 0.00 61 993.3
20260901202020 33 0 0.0 0.0 0.00 0.00 0.00 57 993.4
20260901200518 33 0 0.0 0.0 0.00 0.00 0.00 60 993.4
20260901195018 34 0 0.0 0.0 0.00 0.00 0.00 57 993.6
20260901194907 34 0 0.0 0.0 0.00 0.00 0.00 57 993.7
20260901192016 35 0 0.0 0.0 0.00 0.00 0.00 57 993.8
20260901190515 35 0 0.0 0.0 0.00 0.00 0.00 57 994.0
20260901185013 35 0 0.0 0.0 0.00 0.00 0.00 52 994.2
20260901183522 35 0 0.0 0.0 0.00 0.00 0.00 56 994.4
20260901182018 35 0 0.0 0.0 0.00 0.00 0.00 56 994.4
20260901180549 36 0 0.0 0.0 0.00 0.00 0.00 54 994.4
20260901175041 35 0 0.0 0.0 0.00 0.00 0.00 52 994.5
20260901174244 35 0 0.0 0.0 0.00 0.00 0.00 55 994.5
20260901173424 35 0 0.0 0.0 0.00 0.00 0.00 55 994.6
20260901170529 35 0 0.0 0.0 0.00 0.00 0.00 58 994.8
20260901165020 35 0 0.0 0.0 0.00 0.00 0.00 60 994.9
20260901163521 33 0 0.0 0.0 0.00 0.00 0.00 60 995.0
20260901162010 33 0 0.0 0.0 0.00 0.00 0.00 59 995.2
20260901160500 33 0 0.0 0.0 0.00 0.00 0.00 61 995.4
20260901155008 32 0 0.0 0.0 0.00 0.00 0.00 63 995.6
20260901153451 32 0 0.0 0.0 0.00 0.00 0.00 68 995.8
20260901152642 32 0 0.0 0.0 0.00 0.00 0.00 69 996.0
20260901150447 31 0 0.0 0.0 0.00 0.00 0.00 72 996.0
20260901144943 30 0 0.0 0.0 0.00 0.00 0.00 74 996.1
20260901143443 30 0 0.0 0.0 0.00 0.00 0.00 80 996.0
20260901142645 28 0 0.0 0.0 0.00 0.00 0.00 84 996.0
20260901140441 27 0 0.0 0.0 0.00 0.00 0.00 88 995.9
20260901134939 25 0 0.0 0.0 0.00 0.00 0.00 92 995.9
20260901133439 25 0 0.0 0.0 0.00 0.00 0.00 93 995.9
20260901131939 24 0 0.0 0.0 0.00 0.00 0.00 94 995.8
20260901130439 24 0 0.0 0.0 0.00 0.00 0.00 94 995.8
20260901124939 23 0 0.0 0.0 0.00 0.00 0.00 94 995.7
20260901123439 23 0 0.0 0.0 0.00 0.00 0.00 95 995.7
20260901121938 23 0 0.0 0.0 0.00 0.00 0.00 94 995.7
20260901120437 23 0 0.0 0.0 0.00 0.00 0.00 94 995.7
20260901114934 23 0 0.0 0.0 0.00 0.00 0.00 94 995.4
20260901113435 23 0 0.0 0.0 0.00 0.00 0.00 94 995.3
20260901111933 23 0 0.0 0.0 0.00 0.00 0.00 94 995.1
20260901111122 23 0 0.0 0.0 0.00 0.00 0.00 94 995.0
20260901104928 23 0 0.0 0.0 0.00 0.00 0.00 94 994.9
20260901103424 23 0 0.0 0.0 0.00 0.00 0.00 94 994.7
20260901101924 23 0 0.0 0.0 0.00 0.00 0.00 93 994.7
20260901100422 23 0 0.0 0.0 0.00 0.00 0.00 93 994.6
20260901094921 23 0 0.0 0.0 0.00 0.00 0.00 93 994.7
20260901093420 23 0 0.0 0.0 0.00 0.00 0.00 92 994.6
20260901091920 23 0 0.0 0.0 0.00 0.00 0.00 91 994.7
20260901090419 23 0 0.0 0.0 0.00 0.00 0.00 90 994.6
20260901084917 23 0 0.0 0.0 0.00 0.00 0.00 89 994.8
20260901083414 23 0 0.0 0.0 0.00 0.00 0.00 89 994.8
20260901081914 24 0 0.0 0.0 0.00 0.00 0.00 89 994.9
20260901081117 24 0 0.0 0.0 0.00 0.00 0.00 89 994.9
20260901074916 24 0 0.0 0.0 0.00 0.00 0.00 88 994.9
20260901073414 24 0 0.0 0.0 0.00 0.00 0.00 89 995.2
20260901071912 24 0 0.0 0.0 0.00 0.00 0.00 89 995.2
20260901070409 24 0 0.0 0.0 0.00 0.00 0.00 89 995.3
20260901064908 24 0 0.0 0.0 0.00 0.00 0.00 88 995.3
20260901064106 25 0 0.0 0.0 0.00 0.00 0.00 88 995.4
20260901061904 25 0 0.0 0.0 0.00 0.00 0.00 87 995.4